This is the latest recevied weather packets stored in our database for station/object G4KVI. If no packets are shown the sender has not sent any weather packets the latest 1 day(s).
| Time | Temp. | Humidity | Pressure | Rain* | Wind** | Luminosity | Snow |
|---|---|---|---|---|---|---|---|
| 1778039103 | 9.44° C | 76% | 1015.4 hPa | 0 mm | 1.34 m/s, 69° | 0 W/m² | - |
| 1778038803 | 9.44° C | 77% | 1015.5 hPa | 0 mm | 1.34 m/s, 71° | 0 W/m² | - |
| 1778038503 | 9.44° C | 78% | 1015.2 hPa | 0 mm | 1.34 m/s, 75° | 0 W/m² | - |
| 1778038203 | 9.44° C | 77% | 1015.4 hPa | 0 mm | 0.89 m/s, 82° | 0 W/m² | - |
| 1778037903 | 9.44° C | 77% | 1015.3 hPa | 0 mm | 0.89 m/s, 90° | 0 W/m² | - |
| 1778037603 | 9.44° C | 77% | 1015.3 hPa | 0 mm | 1.34 m/s, 86° | 0 W/m² | - |
| 1778037303 | 9.44° C | 76% | 1015.4 hPa | 0 mm | 1.34 m/s, 90° | 0 W/m² | - |
| 1778037003 | 9.44° C | 77% | 1015.5 hPa | 0 mm | 1.34 m/s, 88° | 0 W/m² | - |
| 1778036703 | 10° C | 77% | 1015.5 hPa | 0 mm | 1.34 m/s, 70° | 0 W/m² | - |
| 1778036403 | 10° C | 77% | 1015.6 hPa | 0 mm | 1.34 m/s, 72° | 0 W/m² | - |
| 1778036103 | 10° C | 77% | 1015.3 hPa | 0 mm | 1.34 m/s, 81° | 0 W/m² | - |
| 1778035803 | 10° C | 77% | 1015.4 hPa | 0 mm | 1.34 m/s, 79° | 0 W/m² | - |
| 1778035503 | 10° C | 77% | 1015.5 hPa | 0 mm | 1.34 m/s, 79° | 0 W/m² | - |
| 1778035203 | 10° C | 76% | 1015.4 hPa | 0 mm | 0.89 m/s, 77° | 0 W/m² | - |
| 1778034903 | 10° C | 76% | 1015.4 hPa | 0 mm | 0.89 m/s, 74° | 0 W/m² | - |
| 1778034603 | 10° C | 76% | 1015.3 hPa | 0 mm | 0.89 m/s, 81° | 0 W/m² | - |
| 1778034303 | 10° C | 76% | 1015.3 hPa | 0 mm | 1.34 m/s, 85° | 0 W/m² | - |
| 1778034003 | 10° C | 75% | 1015.5 hPa | 0 mm | 1.34 m/s, 78° | 0 W/m² | - |
| 1778033703 | 10° C | 75% | 1015.3 hPa | 0 mm | 1.34 m/s, 73° | 0 W/m² | - |
| 1778033403 | 10° C | 75% | 1015.3 hPa | 0 mm | 1.79 m/s, 78° | 0 W/m² | - |
| 1778033103 | 10° C | 75% | 1015.2 hPa | 0 mm | 1.34 m/s, 80° | 0 W/m² | - |
| 1778032803 | 10° C | 75% | 1015.3 hPa | 0 mm | 0.89 m/s, 70° | 0 W/m² | - |
| 1778032503 | 10° C | 75% | 1015.3 hPa | 0 mm | 0.89 m/s, 70° | 0 W/m² | - |
| 1778032203 | 10° C | 75% | 1015.3 hPa | 0 mm | 0.89 m/s, 79° | 0 W/m² | - |
| 1778031903 | 10.56° C | 75% | 1015.3 hPa | 0 mm | 0.89 m/s, 85° | 0 W/m² | - |
* Rain latest hour (hover to see other rain measurements)
** Current wind speed in m/s (hover to see current wind gust speed)